Location: Fouquenies
(49.4624°N, 2.0492°E)
Time: 19:46:36
(UTC+00:00)

Lacrosse 5 - Visible Passes

Search period start: 01 October 2023 00:00
Search period end: 11 October 2023 00:00
Orbit: 714 x 724 km, 57.0° (Epoch: 09 March)

Date Brightness Start Highest point End Pass type
(mag) Time Alt. Az. Time Alt. Az. Time Alt. Az.
01 Oct 2.6 19:19:00 10° NW 19:23:55 44° NNE 19:25:53 30° ENE visible
01 Oct 3.3 21:02:05 10° WNW 21:05:05 35° WNW 21:05:05 35° WNW visible
02 Oct 2.8 18:25:42 10° WNW 18:30:28 38° N 18:34:34 13° ENE visible
02 Oct 1.9 20:08:53 10° NW 20:13:46 75° N 20:13:46 75° N visible
02 Oct 4.6 21:52:19 10° WNW 21:52:58 13° WNW 21:52:58 13° WNW visible
03 Oct 2.2 19:15:42 10° NW 19:20:45 56° NNE 19:22:30 37° E visible
03 Oct 3.5 20:58:50 10° WNW 21:01:41 30° W 21:01:41 30° W visible
04 Oct 2.5 18:22:28 10° NW 18:27:23 44° NNE 18:31:15 16° E visible
04 Oct 1.9 20:05:33 10° WNW 20:10:27 71° WSW 20:10:27 71° WSW visible
05 Oct 1.8 19:12:20 10° NW 19:17:29 77° NNE 19:19:16 41° ESE visible
05 Oct 3.8 20:55:46 10° WNW 20:58:28 24° W 20:58:28 24° W visible
06 Oct 2.2 18:19:09 10° NW 18:24:12 56° NNE 18:28:08 16° E visible
06 Oct 2.5 20:02:17 10° WNW 20:07:10 46° SW 20:07:21 46° SW visible
07 Oct 2.0 19:09:00 10° WNW 19:14:07 73° SW 19:16:17 35° SE visible
07 Oct 4.2 20:53:08 10° W 20:55:30 16° WSW 20:55:30 16° WSW visible
08 Oct 1.9 18:15:48 10° NW 18:20:56 77° NNE 18:25:18 14° ESE visible
08 Oct 3.3 19:59:12 10° WNW 20:03:33 28° SW 20:04:31 27° SSW visible
09 Oct 2.7 19:05:44 10° WNW 19:10:38 46° SW 19:13:38 22° SSE visible
10 Oct 2.1 18:12:27 10° WNW 18:17:34 74° SW 18:22:39 10° SE visible
10 Oct 4.2 19:56:34 10° W 19:59:50 17° WSW 20:02:07 13° SSW visible
